Retour au catalogue

FENGYUN 1C DEB

ActifPO
NORAD 31058·DEBRIS·🇨🇳 China

Lancé May 10, 1999 depuis Taiyuan Satellite Launch Center

Loading…

Prochains Passages (prochaines 24 heures)

TLE

VieillissantSource: Space-Track

Époque: Sep 10, 2026, 06:41 UTC

1 31058U 99025BFC 26253.27872102  .00003885  00000-0  48266-3 0  9992
2 31058  99.5875 259.0669 0086926 349.8694  10.0758 14.80728426 35071

Suivez FENGYUN 1C DEB en temps réel avec AllMySat

Download on the App Store